Torna al catalogo

NAVSTAR 29

USA 87

AttivoNavigazioneMEO
NORAD 22275·PAYLOAD·🇺🇸 United States

Lanciato Dec 18, 1992 da Cape Canaveral Space Force Station

Loading…

Prossimi Passaggi (prossime 24 ore)

TLE

AggiornatoSource: Space-Track

Epoca: Sep 14, 2026, 19:05 UTC

1 22275U 92089A   26257.79529436 -.00000001  00000-0  00000-0 0  9995
2 22275  55.0510 125.3403 0077270  81.4093 101.5831  1.88246567238562

Traccia NAVSTAR 29 in tempo reale con AllMySat

Download on the App Store